Location: Batesville
(34.7480°N, 83.6110°W)
Time: 02:24:10
(UTC-04:00)

OTV 5 (USA 277) - Visible Passes

Search period start: 20 July 2018 00:00
Search period end: 30 July 2018 00:00
Orbit: 312 x 321 km, 54.5° (Epoch: 05 July)

Date Brightness Start Highest point End Pass type
(mag) Time Alt. Az. Time Alt. Az. Time Alt. Az.
26 Jul ? 05:24:17 10° SSE 05:25:24 12° SE 05:26:30 10° E visible
27 Jul ? 05:37:54 17° SSW 05:39:38 38° SE 05:42:12 10° ENE visible
28 Jul ? 05:52:07 16° WSW 05:54:03 50° NW 05:56:41 10° NNE visible
29 Jul ? 04:35:23 17° E 04:35:23 17° E 04:36:28 10° ENE visible
29 Jul ? 06:06:42 10° W 06:08:37 17° NW 06:10:31 10° N visible
